Powrót do katalogu

STARLINK-33700

AktywnyŁącznośćVLEO
NORAD 63484·PAYLOAD·🇺🇸 United States

Wystrzelony Apr 6, 2025 z Cape Canaveral Space Force Station

Loading…

Następne Przeloty (najbliższe 24 godziny)

TLE

ŚwieżeSource: CelesTrak SupGP

Epoka: Sep 14, 2026, 22:42 UTC

1 63484C 25070AA  26257.94631944  .00037006  00000+0  13400-2 0  2573
2 63484  43.0028 270.8655 0001378 258.8513  36.1667 15.27569719    10

Śledź STARLINK-33700 w czasie rzeczywistym z AllMySat

Download on the App Store